C/2020 U5 ( PanSTARRS )

Japanese version
Home page
Updated on December 1, 2021

---------------------------------------------------------------------

* Profile

Discovery Date October 22, 2020
Magnitude 20.4 mag
Discoverer Pan-STARRS 1 telescope (Haleakala)

* Pictures

* Orbital Elements

Epoch 2022 Apr. 11.0 TT = JDT 2459680.5
T 2022 Apr. 27.89096 TT                                 Rudenko
q   3.7559572            (2000.0)            P               Q
z  +0.0001861      Peri.   75.41729     +0.04188190     +0.31879278
 +/-0.0000026      Node   107.33620     -0.12787877     -0.93822506
e   0.9993010      Incl.   97.27005     +0.99090511     -0.13455447
From 237 observations 2020 Sept. 25-2021 Sept. 1, mean residual 0".6.

* Finding Charts

* Magnitudes Graph

        m1 = 7.5 + 5 log d + 10.0 log r

---------------------------------------------------------------------

The orbital elements are published on M.P.E.C. 2021-R75.
The charts are made with StellaNavigator Ver.10 (AstroArts).
The magnitudes graphs are made with Comet for Windows.

---------------------------------------------------------------------

Copyright(C) Seiichi Yoshida (comet@aerith.net). All rights reserved.